Wind_Speed
5 5 7 8 9 10 11 11 10 9 8 9 8 8 10 12 6 20 16 15 16 22 22 21 19 17 14 12 11 11 10 7 8 5 6 8 9 10 21 27 29 19 15 15 15
5 6 7 8 9 10 11 10 10 9 9 9 8 8 11 14 7 17 17 17 21 19 20 20 19 16 13 10 8 9 9 10 14 10 8 7 8 7 9 19 26 24 19 15 14
6 6 7 8 9 11 11 11 11 10 9 9 7 9 11 15 8 16 15 19 18 20 19 17 17 14 10 7 5 7 8 11 11 11 8 8 6 8 7 13 20 23 23 19 15
5 5 6 7 9 10 10 11 10 10 9 8 6 7 13 15 12 14 17 19 19 21 20 19 15 11 8 5 4 4 7 11 13 13 10 8 7 5 6 10 17 22 24 18 17
5 5 6 7 9 10 10 11 10 10 9 7 6 7 12 15 14 16 19 20 21 20 20 18 14 11 8 6 4 3 5 8 10 13 15 12 9 7 5 8 12 19 20 19 19
4 4 6 7 9 10 10 10 11 11 11 8 9 9 14 17 16 17 19 20 21 20 19 16 13 12 10 8 8 7 7 7 5 6 12 9 14 11 11 9 12 15 19 18 18
4 4 5 6 7 9 10 10 10 11 10 8 12 12 13 16 17 17 20 20 20 19 16 15 15 12 10 5 8 6 6 6 7 2 4 11 13 18 13 12 10 17 16 18 17
4 4 4 5 7 9 10 10 12 13 10 9 10 10 14 17 19 22 20 19 18 18 15 15 14 11 10 8 8 5 6 3 5 4 1 10 10 17 18 15 12 15 19 22 18
3 3 4 5 7 9 10 10 11 10 11 10 9 8 14 17 16 16 17 17 17 15 14 13 11 14 12 8 7 7 3 5 5 6 0 4 8 12 17 18 17 16 19 19 25
3 3 3 5 6 8 9 11 12 10 13 10 7 5 14 16 16 17 18 16 15 13 12 12 12 13 11 11 5 6 5 6 5 7 5 1 7 5 12 13 17 19 21 20 23
3 3 4 5 6 7 9 11 13 10 13 9 7 10 14 17 14 18 16 15 13 13 12 12 8 15 15 13 9 6 4 4 2 6 4 5 3 4 7 13 15 18 19 21 22
4 4 4 5 6 7 10 11 12 12 13 8 5 9 14 15 14 17 15 14 12 11 10 9 15 15 15 13 10 7 7 5 1 3 4 7 7 5 2 5 12 15 17 19 21
5 5 5 5 6 6 9 10 10 13 11 5 7 9 14 15 12 17 16 14 12 11 9 12 11 13 14 12 9 5 12 8 4 3 6 5 2 6 7 6 2 6 11 15 18
7 5 6 6 6 7 8 11 11 13 1 5 8 10 15 16 13 17 17 15 11 10 8 7 9 10 13 13 12 6 15 7 4 6 3 9 1 6 6 5 3 2 4 8 12
10 7 7 6 7 8 8 9 11 9 2 7 9 13 14 13 14 15 15 15 10 9 8 6 7 8 13 14 14 11 11 4 1 5 4 7 5 5 10 7 3 5 5 7 10
11 9 8 7 7 8 9 9 10 5 1 5 9 13 13 12 13 13 15 15 10 7 6 6 7 9 13 13 11 16 7 2 3 3 3 5 6 4 11 13 8 8 10 12 14
14 13 12 9 8 7 7 8 4 1 3 5 10 14 13 10 11 13 12 12 12 5 7 5 5 10 13 14 8 13 9 2 2 1 1 4 4 5 7 9 9 9 11 14 17
18 16 14 12 8 6 6 5 2 2 6 8 12 13 7 11 10 13 14 11 14 13 5 6 4 9 13 13 12 14 13 4 4 3 4 5 4 3 4 6 8 12 14 17 19
20 17 15 13 9 7 6 2 2 4 6 10 12 7 6 10 10 10 12 8 11 14 10 7 3 6 11 11 12 10 10 6 1 3 3 2 5 8 7 7 10 14 15 14 15
22 20 17 15 11 9 7 5 7 9 8 8 6 5 8 11 9 11 8 6 8 12 12 10 3 5 10 8 9 7 9 4 5 4 3 2 5 4 2 8 12 11 10 9 11
26 23 18 15 12 12 9 8 9 9 7 5 6 8 10 10 8 9 4 7 9 10 11 11 4 7 7 6 7 7 5 4 2 0 2 4 1 2 3 11 8 6 7 12 13
26 24 21 17 15 14 11 9 10 8 7 7 6 6 7 9 9 7 3 5 9 9 9 10 4 7 7 8 4 5 5 5 2 2 3 3 7 4 10 12 6 4 9 12 13
30 25 23 17 14 14 12 10 11 10 8 5 6 9 11 9 6 5 6 9 7 8 8 9 5 6 5 5 9 11 10 10 7 7 7 3 4 8 13 8 2 4 9 11 13
23 22 22 23 21 19 15 14 14 11 11 9 8 11 12 11 9 7 11 8 9 10 9 10 6 7 7 13 18 22 21 16 13 7 6 15 15 8 9 3 2 4 7 9 11
29 29 26 15 18 22 16 18 14 15 16 12 12 10 12 9 9 10 8 8 10 10 9 9 8 12 12 17 23 24 21 19 22 19 12 11 16 9 3 4 1 2 6 8 9
32 29 27 28 21 20 18 18 16 19 21 20 17 17 14 13 11 13 13 11 9 9 10 12 10 18 21 10 12 21 20 22 20 20 22 19 12 5 6 2 3 6 8 9 10
30 28 29 27 27 24 24 20 21 20 20 20 16 14 14 14 14 15 14 14 13 14 14 14 10 13 7 12 23 12 4 7 9 11 12 12 4 10 6 3 0 3 6 8 10
Wind_Direction
47 38 34 25 19 10 7 13 14 17 15 5 17 26 22 14 6 2 360 7 8 4 352 356 350 349 333 312 288 268 246 253 246 258 239 248 233 241 227 222 222 225 221 218 220
44 34 29 23 13 11 8 17 18 15 16 5 7 19 14 10 8 3 9 10 14 354 346 350 349 341 324 309 287 259 250 246 248 246 205 187 207 234 230 223 226 230 224 219 212
40 29 23 22 14 14 9 18 18 11 11 5 8 6 5 7 10 8 9 12 354 343 342 342 332 332 325 319 293 265 236 243 242 237 207 207 229 218 211 216 217 213 216 215 207
35 26 23 23 19 15 13 17 18 13 10 3 11 355 1 10 11 3 5 360 351 342 347 350 337 334 341 351 320 278 254 243 240 238 213 189 213 228 190 219 214 206 209 211 202
27 27 22 21 20 16 16 20 15 12 3 2 360 352 360 12 8 9 5 355 351 353 356 352 350 351 0 9 5 344 289 277 263 253 244 220 231 232 223 207 220 205 204 200 209
26 27 20 20 17 15 17 19 14 11 359 359 355 355 2 359 13 9 3 356 356 359 0 0 4 10 12 20 28 19 9 4 329 285 245 224 220 221 225 199 214 199 192 200 200
16 26 27 16 12 17 11 16 17 9 358 355 354 359 6 13 14 12 6 360 359 3 11 13 17 26 19 26 22 37 43 34 30 50 199 203 217 218 214 213 205 209 188 194 204
9 21 22 14 7 15 7 15 15 7 359 350 349 353 5 16 16 12 2 1 2 11 17 24 26 32 43 49 44 50 28 19 20 46 258 190 218 213 216 218 221 208 219 214 202
6 14 14 2 2 9 2 14 13 7 359 358 352 358 10 17 14 9 4 6 10 15 24 31 30 41 46 55 47 44 28 20 330 3 323 202 219 211 212 218 229 232 225 217 220
335 349 0 349 3 3 356 3 5 7 0 357 355 10 7 14 13 8 9 9 14 18 24 39 44 49 49 54 46 25 35 17 28 7 28 159 205 223 224 221 226 233 236 237 230
309 329 337 343 357 355 349 359 356 358 356 347 358 3 4 11 8 11 10 11 12 26 33 44 50 43 33 30 27 20 29 26 7 354 26 71 136 195 209 217 232 238 236 240 244
297 311 331 340 345 354 342 360 357 351 343 345 7 360 7 5 12 6 7 16 17 27 33 33 36 34 22 17 15 20 2 342 263 346 120 93 85 91 135 223 226 230 235 239 243
287 302 315 328 333 346 337 346 347 350 345 32 14 8 5 4 14 11 14 13 15 26 33 36 32 24 13 6 2 334 350 336 264 247 181 138 133 105 97 100 137 242 249 250 250
275 287 296 306 312 329 337 339 340 346 65 33 9 5 2 3 2 6 13 14 18 19 26 26 16 17 6 3 4 335 336 337 304 178 206 204 239 206 148 124 138 185 252 269 268
270 271 281 300 316 329 332 334 335 344 54 348 358 357 1 6 358 6 11 14 9 20 29 18 15 9 5 5 9 346 339 358 330 192 190 215 260 215 203 204 216 239 253 262 270
267 276 277 289 305 315 323 332 333 338 92 347 353 352 350 355 360 2 11 12 15 5 21 8 11 13 11 358 0 358 348 14 80 153 229 224 230 200 216 230 252 279 285 286 281
265 272 276 275 285 302 325 336 335 21 327 348 346 341 339 349 359 3 9 7 25 9 1 357 356 11 8 359 358 4 8 274 213 240 359 247 274 267 228 231 260 285 297 302 301
258 266 264 264 277 298 315 325 281 303 348 344 337 337 351 358 355 357 0 9 18 21 6 3 345 1 2 0 353 8 25 40 309 325 327 283 261 266 258 252 299 314 320 323 321
249 254 261 259 264 281 297 326 268 299 315 327 333 338 348 345 346 351 352 13 16 18 16 350 317 352 358 351 5 352 7 12 320 298 279 271 293 295 276 295 323 326 323 329 329
245 246 255 253 258 268 282 283 278 287 305 320 333 324 328 332 339 347 350 348 10 14 12 351 326 357 347 342 350 360 355 1 355 337 319 310 290 294 313 334 327 319 329 342 352
240 245 245 245 250 254 266 273 278 283 297 307 317 309 320 325 327 337 337 335 355 1 4 354 333 340 346 339 335 335 345 348 339 311 325 316 26 297 305 334 321 311 329 343 345
233 239 245 247 239 246 252 267 272 271 277 288 304 324 324 324 318 323 334 324 335 350 358 357 319 327 319 321 318 334 321 330 287 266 234 254 281 283 329 332 312 313 337 347 353
236 233 240 233 228 236 249 258 259 262 266 268 292 320 317 312 317 312 324 321 326 334 341 346 334 327 325 329 325 322 320 309 291 275 228 226 263 311 331 316 284 334 342 357 4
221 228 238 232 232 241 246 258 246 250 262 272 288 318 320 305 296 283 300 305 321 317 318 322 306 296 274 289 292 292 296 287 265 253 251 258 283 310 327 283 245 336 357 8 11
226 231 228 234 236 230 241 248 237 249 254 262 275 294 301 297 301 288 292 307 309 307 304 303 301 303 303 298 290 290 289 276 260 261 258 284 305 308 244 194 209 9 6 12 15
230 228 226 233 246 232 225 242 244 253 259 262 268 275 277 290 278 284 289 296 295 302 297 297 289 310 321 318 304 301 292 280 267 261 269 285 315 136 143 111 47 22 15 11 11
222 236 231 239 241 238 247 247 251 250 261 260 266 267 267 264 270 281 282 284 283 285 285 281 288 312 300 314 314 302 322 294 295 292 284 284 310 157 145 159 124 12 22 24 15
Height
3174 3173 3172 3172 3170 3169 3168 3166 3165 3164 3162 3161 3159 3157 3156 3155 3152 3149 3148 3146 3142 3138 3136 3134 3132 3131 3131 3130 3131 3132 3133 3133 3132 3133 3133 3133 3134 3133 3135 3137 3138 3141 3142 3145 3146
3174 3173 3173 3172 3170 3168 3168 3166 3165 3164 3162 3161 3161 3159 3157 3155 3152 3148 3146 3143 3140 3139 3137 3132 3130 3129 3130 3129 3128 3129 3130 3130 3129 3130 3131 3132 3133 3132 3134 3133 3134 3136 3140 3143 3144
3175 3174 3173 3172 3171 3169 3168 3166 3165 3164 3163 3162 3161 3160 3157 3154 3152 3149 3146 3142 3141 3139 3135 3132 3131 3129 3127 3125 3125 3126 3127 3127 3127 3128 3130 3131 3132 3131 3131 3131 3132 3134 3138 3140 3141
3175 3175 3174 3172 3171 3170 3169 3167 3165 3164 3163 3162 3160 3159 3157 3153 3153 3149 3145 3143 3142 3139 3135 3131 3129 3127 3127 3125 3125 3125 3124 3124 3124 3125 3128 3130 3131 3130 3129 3131 3131 3132 3135 3138 3139
3175 3175 3174 3173 3171 3170 3169 3167 3166 3165 3163 3162 3159 3158 3156 3154 3152 3148 3145 3143 3140 3136 3133 3131 3129 3126 3126 3125 3124 3124 3125 3123 3122 3123 3125 3128 3129 3130 3128 3128 3128 3130 3131 3134 3135
3175 3174 3174 3173 3172 3170 3169 3167 3166 3164 3163 3161 3160 3158 3156 3155 3152 3149 3145 3142 3140 3137 3134 3131 3129 3128 3127 3126 3125 3124 3124 3123 3121 3120 3122 3125 3126 3128 3127 3125 3125 3127 3127 3130 3131
3175 3174 3173 3173 3172 3170 3169 3167 3165 3164 3163 3162 3161 3159 3158 3156 3152 3149 3146 3144 3140 3137 3133 3132 3130 3128 3127 3126 3126 3125 3125 3123 3121 3119 3119 3121 3123 3123 3125 3125 3123 3124 3125 3127 3129
3175 3174 3173 3173 3172 3170 3169 3167 3165 3164 3163 3162 3160 3159 3157 3153 3150 3146 3145 3143 3140 3136 3135 3133 3132 3129 3126 3126 3126 3126 3125 3125 3121 3120 3120 3121 3120 3120 3123 3123 3123 3124 3124 3124 3127
3173 3173 3172 3172 3171 3169 3169 3166 3165 3163 3162 3161 3160 3158 3157 3153 3152 3149 3147 3144 3141 3138 3135 3133 3133 3131 3129 3127 3127 3125 3126 3125 3123 3120 3120 3121 3119 3119 3120 3121 3122 3122 3122 3123 3124
3173 3172 3171 3171 3170 3169 3168 3167 3165 3163 3162 3161 3160 3160 3158 3154 3152 3150 3147 3144 3142 3139 3137 3135 3134 3132 3132 3128 3129 3126 3125 3124 3123 3122 3119 3119 3118 3118 3118 3119 3120 3120 3120 3121 3122
3172 3171 3170 3170 3169 3168 3168 3166 3167 3165 3161 3160 3160 3160 3157 3154 3153 3149 3147 3144 3143 3140 3138 3136 3136 3133 3133 3130 3128 3127 3125 3124 3124 3122 3121 3119 3118 3116 3116 3117 3117 3118 3118 3118 3119
3170 3170 3169 3169 3169 3168 3168 3165 3165 3165 3161 3160 3159 3159 3157 3155 3152 3150 3148 3146 3143 3140 3138 3138 3136 3135 3133 3131 3128 3127 3125 3124 3123 3122 3122 3121 3119 3117 3116 3115 3115 3115 3115 3115 3116
3168 3169 3169 3167 3167 3167 3167 3165 3163 3161 3160 3160 3159 3158 3156 3155 3153 3151 3149 3146 3144 3142 3138 3137 3139 3135 3133 3132 3129 3127 3125 3122 3122 3122 3122 3122 3122 3119 3118 3116 3115 3115 3114 3114 3114
3166 3166 3167 3166 3168 3166 3165 3164 3163 3159 3158 3161 3159 3158 3157 3154 3153 3151 3148 3148 3144 3142 3139 3139 3138 3136 3135 3132 3130 3127 3123 3120 3119 3121 3122 3121 3120 3119 3117 3117 3116 3115 3115 3114 3113
3165 3164 3165 3165 3165 3165 3165 3163 3162 3159 3159 3163 3159 3158 3155 3156 3154 3151 3149 3146 3144 3143 3143 3141 3138 3137 3135 3132 3130 3128 3122 3120 3119 3119 3120 3121 3122 3116 3116 3116 3116 3115 3114 3113 3112
3162 3163 3163 3163 3163 3163 3162 3161 3161 3161 3157 3160 3158 3157 3156 3153 3151 3149 3147 3146 3143 3143 3140 3140 3139 3137 3135 3132 3130 3127 3123 3120 3119 3119 3120 3118 3120 3115 3115 3115 3115 3114 3112 3110 3109
3159 3160 3161 3161 3161 3160 3160 3161 3162 3157 3162 3160 3157 3156 3156 3154 3152 3149 3147 3147 3145 3143 3142 3140 3138 3136 3135 3134 3131 3128 3124 3122 3120 3119 3117 3117 3118 3114 3113 3112 3112 3111 3109 3107 3104
3156 3157 3157 3158 3159 3159 3159 3161 3160 3160 3159 3159 3156 3155 3154 3154 3152 3150 3148 3147 3145 3142 3142 3141 3138 3137 3134 3134 3133 3129 3127 3126 3121 3119 3119 3116 3116 3113 3111 3111 3110 3108 3106 3103 3100
3151 3153 3155 3155 3156 3158 3159 3159 3158 3158 3158 3156 3155 3154 3153 3153 3153 3149 3147 3147 3145 3143 3144 3141 3140 3139 3137 3134 3135 3131 3130 3128 3127 3124 3122 3116 3115 3112 3109 3109 3108 3106 3104 3101 3098
3146 3148 3150 3152 3153 3155 3156 3157 3157 3156 3156 3154 3155 3153 3152 3151 3151 3149 3146 3147 3145 3143 3142 3143 3142 3138 3138 3137 3135 3134 3133 3130 3128 3124 3117 3114 3113 3112 3110 3109 3107 3105 3102 3100 3096
3141 3143 3145 3147 3149 3151 3152 3154 3153 3154 3154 3154 3152 3152 3152 3150 3149 3148 3147 3148 3145 3144 3143 3142 3141 3140 3137 3136 3135 3135 3132 3131 3129 3128 3125 3121 3113 3111 3110 3109 3106 3103 3101 3098 3094
3134 3138 3139 3141 3146 3145 3148 3150 3151 3151 3151 3151 3150 3149 3149 3149 3148 3147 3146 3147 3144 3143 3142 3141 3140 3138 3135 3134 3134 3134 3132 3131 3130 3128 3125 3124 3115 3110 3109 3106 3104 3102 3100 3097 3093
3126 3131 3134 3136 3137 3140 3143 3145 3145 3148 3148 3149 3149 3148 3148 3148 3148 3146 3145 3146 3143 3142 3140 3139 3138 3137 3134 3136 3132 3131 3130 3129 3128 3125 3122 3121 3112 3109 3108 3104 3103 3102 3100 3096 3092
3121 3124 3128 3130 3132 3135 3138 3140 3142 3144 3145 3146 3145 3146 3146 3146 3146 3145 3144 3144 3142 3141 3139 3138 3138 3137 3137 3133 3132 3128 3128 3127 3127 3124 3118 3112 3108 3107 3106 3104 3102 3101 3099 3096 3092
3112 3115 3121 3123 3125 3129 3133 3135 3136 3140 3141 3142 3141 3141 3143 3143 3143 3143 3142 3142 3140 3138 3137 3137 3133 3132 3132 3129 3126 3123 3122 3122 3120 3118 3115 3109 3106 3105 3103 3103 3102 3100 3098 3095 3092
3103 3108 3114 3117 3121 3124 3126 3129 3132 3134 3138 3137 3138 3137 3139 3140 3142 3140 3140 3139 3137 3135 3134 3133 3131 3128 3124 3123 3122 3118 3117 3116 3114 3111 3108 3107 3104 3102 3102 3103 3101 3100 3098 3095 3092
3093 3100 3108 3110 3113 3118 3121 3124 3128 3130 3131 3133 3134 3133 3134 3137 3137 3137 3137 3135 3133 3133 3131 3129 3127 3126 3121 3120 3118 3115 3112 3111 3109 3107 3106 3104 3104 3102 3101 3100 3100 3099 3097 3094 3091